| time (UTC) | temp F | wind direction | speed knots | gust knots | rain 1hr in | rain 24hr in | rain mn in | humidity % | barometer mb |
| 20260507015038 | 51 | 360 | 2.6 | 0.0 | 0.00 | 0.00 | 0.00 | 25 | 1013.0 |
| 20260507014538 | 52 | 360 | 3.5 | 0.0 | 0.00 | 0.00 | 0.00 | 24 | 1013.1 |
| 20260507014038 | 53 | 360 | 4.3 | 0.0 | 0.00 | 0.00 | 0.00 | 23 | 1013.0 |
| 20260507013540 | 53 | 360 | 3.5 | 0.0 | 0.00 | 0.00 | 0.00 | 23 | 1013.1 |
| 20260507013039 | 54 | 360 | 4.3 | 0.0 | 0.00 | 0.00 | 0.00 | 22 | 1013.2 |
| 20260507012537 | 54 | 360 | 6.1 | 0.0 | 0.00 | 0.00 | 0.00 | 22 | 1013.2 |
| 20260507012037 | 54 | 360 | 6.1 | 0.0 | 0.00 | 0.00 | 0.00 | 22 | 1013.1 |
| 20260507011540 | 55 | 360 | 5.2 | 0.0 | 0.00 | 0.00 | 0.00 | 22 | 1013.1 |
| 20260507011036 | 55 | 360 | 4.3 | 0.0 | 0.00 | 0.00 | 0.00 | 22 | 1013.2 |
| 20260507010536 | 55 | 360 | 3.5 | 0.0 | 0.00 | 0.00 | 0.00 | 22 | 1013.2 |
| 20260507005535 | 56 | 360 | 2.6 | 0.0 | 0.00 | 0.00 | 0.00 | 22 | 1013.2 |
| 20260507005039 | 56 | 360 | 3.5 | 0.0 | 0.00 | 0.00 | 0.00 | 22 | 1013.3 |
| 20260507004536 | 56 | 360 | 4.3 | 0.0 | 0.00 | 0.00 | 0.00 | 22 | 1013.3 |
| 20260507004035 | 56 | 360 | 6.1 | 0.0 | 0.00 | 0.00 | 0.00 | 22 | 1013.3 |
| 20260507003537 | 56 | 360 | 7.0 | 0.0 | 0.00 | 0.00 | 0.00 | 22 | 1013.3 |
| 20260507003035 | 56 | 360 | 7.0 | 0.0 | 0.00 | 0.00 | 0.00 | 22 | 1013.2 |
| 20260507002534 | 56 | 360 | 7.0 | 0.0 | 0.00 | 0.00 | 0.00 | 21 | 1013.3 |
| 20260507002034 | 56 | 360 | 8.7 | 0.0 | 0.00 | 0.00 | 0.00 | 21 | 1013.3 |
| 20260507001546 | 56 | 360 | 8.7 | 0.0 | 0.00 | 0.00 | 0.00 | 21 | 1013.4 |
| 20260507001034 | 56 | 360 | 6.1 | 0.0 | 0.00 | 0.00 | 0.00 | 22 | 1013.4 |
| 20260507000533 | 56 | 360 | 5.2 | 0.0 | 0.00 | 0.00 | 0.00 | 22 | 1013.4 |
| 20260506235532 | 56 | 360 | 5.2 | 0.0 | 0.00 | 0.00 | 0.00 | 21 | 1013.6 |
| 20260506235032 | 56 | 360 | 6.1 | 0.0 | 0.00 | 0.00 | 0.00 | 21 | 1013.6 |
| 20260506234541 | 56 | 360 | 6.1 | 0.0 | 0.00 | 0.00 | 0.00 | 21 | 1013.7 |
| 20260506234031 | 56 | 360 | 7.0 | 0.0 | 0.00 | 0.00 | 0.00 | 21 | 1013.7 |
| 20260506233533 | 56 | 360 | 7.8 | 0.0 | 0.00 | 0.00 | 0.00 | 21 | 1013.7 |
| 20260506233033 | 56 | 360 | 7.0 | 0.0 | 0.00 | 0.00 | 0.00 | 21 | 1013.7 |
| 20260506232530 | 56 | 360 | 8.7 | 0.0 | 0.00 | 0.00 | 0.00 | 21 | 1013.8 |
| 20260506232030 | 56 | 360 | 9.6 | 0.0 | 0.00 | 0.00 | 0.00 | 21 | 1014.0 |
| 20260506231535 | 56 | 360 | 7.8 | 0.0 | 0.00 | 0.00 | 0.00 | 21 | 1013.9 |
| 20260506231030 | 57 | 360 | 8.7 | 0.0 | 0.00 | 0.00 | 0.00 | 21 | 1014.0 |
| 20260506230530 | 56 | 360 | 9.6 | 0.0 | 0.00 | 0.00 | 0.00 | 21 | 1014.0 |
| 20260506225531 | 57 | 360 | 6.1 | 0.0 | 0.00 | 0.00 | 0.00 | 21 | 1013.9 |
| 20260506225029 | 56 | 360 | 5.2 | 0.0 | 0.00 | 0.00 | 0.00 | 21 | 1013.9 |
| 20260506224530 | 57 | 360 | 7.8 | 0.0 | 0.00 | 0.00 | 0.00 | 21 | 1014.2 |
| 20260506224026 | 57 | 360 | 7.8 | 0.0 | 0.00 | 0.00 | 0.00 | 21 | 1014.3 |
| 20260506223526 | 56 | 360 | 7.8 | 0.0 | 0.00 | 0.00 | 0.00 | 21 | 1014.3 |
| 20260506223025 | 56 | 360 | 6.1 | 0.0 | 0.00 | 0.00 | 0.00 | 21 | 1014.3 |
| 20260506222525 | 56 | 360 | 5.2 | 0.0 | 0.00 | 0.00 | 0.00 | 22 | 1014.4 |
| 20260506222023 | 56 | 360 | 4.3 | 0.0 | 0.00 | 0.00 | 0.00 | 22 | 1014.4 |
| 20260506221523 | 56 | 360 | 4.3 | 0.0 | 0.00 | 0.00 | 0.00 | 22 | 1014.5 |
| 20260506221022 | 55 | 360 | 6.1 | 0.0 | 0.00 | 0.00 | 0.00 | 22 | 1014.6 |
| 20260506220521 | 55 | 360 | 7.0 | 0.0 | 0.00 | 0.00 | 0.00 | 23 | 1014.8 |
| 20260506215520 | 55 | 360 | 7.8 | 0.0 | 0.00 | 0.00 | 0.00 | 22 | 1015.0 |
| 20260506215020 | 55 | 360 | 7.0 | 0.0 | 0.00 | 0.00 | 0.00 | 23 | 1015.1 |
| 20260506214519 | 55 | 360 | 6.1 | 0.0 | 0.00 | 0.00 | 0.00 | 23 | 1015.1 |
| 20260506214019 | 55 | 360 | 7.8 | 0.0 | 0.00 | 0.00 | 0.00 | 22 | 1015.2 |
| 20260506213517 | 55 | 360 | 7.0 | 0.0 | 0.00 | 0.00 | 0.00 | 22 | 1015.3 |
| 20260506213021 | 55 | 360 | 6.1 | 0.0 | 0.00 | 0.00 | 0.00 | 22 | 1015.5 |
| 20260506212520 | 55 | 360 | 5.2 | 0.0 | 0.00 | 0.00 | 0.00 | 22 | 1015.6 |
| 20260506212016 | 55 | 360 | 4.3 | 0.0 | 0.00 | 0.00 | 0.00 | 23 | 1015.7 |
| 20260506211518 | 54 | 360 | 4.3 | 0.0 | 0.00 | 0.00 | 0.00 | 22 | 1015.7 |
| 20260506211014 | 55 | 360 | 7.0 | 0.0 | 0.00 | 0.00 | 0.00 | 22 | 1015.8 |
| 20260506210513 | 55 | 360 | 8.7 | 0.0 | 0.00 | 0.00 | 0.00 | 22 | 1015.9 |
| 20260506205512 | 54 | 360 | 7.8 | 0.0 | 0.00 | 0.00 | 0.00 | 22 | 1016.0 |
| 20260506205011 | 54 | 360 | 6.1 | 0.0 | 0.00 | 0.00 | 0.00 | 23 | 1016.1 |
| 20260506204511 | 53 | 360 | 7.0 | 0.0 | 0.00 | 0.00 | 0.00 | 23 | 1016.2 |
| 20260506204014 | 53 | 360 | 7.8 | 0.0 | 0.00 | 0.00 | 0.00 | 24 | 1016.3 |
| 20260506203509 | 53 | 360 | 7.8 | 0.0 | 0.00 | 0.00 | 0.00 | 23 | 1016.3 |
| 20260506203009 | 53 | 360 | 7.8 | 0.0 | 0.00 | 0.00 | 0.00 | 23 | 1016.4 |
| 20260506202509 | 54 | 360 | 7.0 | 0.0 | 0.00 | 0.00 | 0.00 | 23 | 1016.5 |
| 20260506202009 | 53 | 360 | 5.2 | 0.0 | 0.00 | 0.00 | 0.00 | 23 | 1016.5 |
| 20260506201508 | 53 | 360 | 6.1 | 0.0 | 0.00 | 0.00 | 0.00 | 24 | 1016.7 |
| 20260506201008 | 53 | 360 | 8.7 | 0.0 | 0.00 | 0.00 | 0.00 | 23 | 1016.8 |
| 20260506200507 | 53 | 360 | 7.0 | 0.0 | 0.00 | 0.00 | 0.00 | 24 | 1016.8 |
| 20260506195507 | 53 | 360 | 7.8 | 0.0 | 0.00 | 0.00 | 0.00 | 23 | 1016.9 |
| 20260506195007 | 53 | 360 | 7.0 | 0.0 | 0.00 | 0.00 | 0.00 | 23 | 1017.0 |
| 20260506194505 | 53 | 360 | 7.0 | 0.0 | 0.00 | 0.00 | 0.00 | 25 | 1017.2 |
| 20260506194003 | 52 | 360 | 6.1 | 0.0 | 0.00 | 0.00 | 0.00 | 25 | 1017.3 |
| 20260506193503 | 51 | 360 | 3.5 | 0.0 | 0.00 | 0.00 | 0.00 | 26 | 1017.2 |
| 20260506193002 | 51 | 360 | 5.2 | 0.0 | 0.00 | 0.00 | 0.00 | 25 | 1017.4 |
| 20260506192502 | 51 | 360 | 7.0 | 0.0 | 0.00 | 0.00 | 0.00 | 26 | 1017.4 |
| 20260506192002 | 51 | 360 | 7.8 | 0.0 | 0.00 | 0.00 | 0.00 | 25 | 1017.5 |
| 20260506191503 | 52 | 360 | 4.3 | 0.0 | 0.00 | 0.00 | 0.00 | 23 | 1017.6 |
| 20260506191100 | 51 | 360 | 3.5 | 0.0 | 0.00 | 0.00 | 0.00 | 26 | 1017.6 |
| 20260506190600 | 51 | 360 | 4.3 | 0.0 | 0.00 | 0.00 | 0.00 | 24 | 1017.8 |
| 20260506185558 | 50 | 360 | 5.2 | 0.0 | 0.00 | 0.00 | 0.00 | 26 | 1017.9 |
| 20260506185058 | 50 | 360 | 4.3 | 0.0 | 0.00 | 0.00 | 0.00 | 25 | 1018.1 |
| 20260506184602 | 50 | 360 | 6.1 | 0.0 | 0.00 | 0.00 | 0.00 | 25 | 1018.2 |
| 20260506184057 | 51 | 360 | 8.7 | 0.0 | 0.00 | 0.00 | 0.00 | 24 | 1018.3 |
| 20260506183557 | 51 | 360 | 8.7 | 0.0 | 0.00 | 0.00 | 0.00 | 24 | 1018.4 |
| 20260506183103 | 51 | 360 | 7.0 | 0.0 | 0.00 | 0.00 | 0.00 | 26 | 1018.4 |
| 20260506182554 | 50 | 360 | 5.2 | 0.0 | 0.00 | 0.00 | 0.00 | 26 | 1018.5 |
| 20260506182053 | 50 | 360 | 6.1 | 0.0 | 0.00 | 0.00 | 0.00 | 26 | 1018.7 |
| 20260506181559 | 50 | 360 | 7.0 | 0.0 | 0.00 | 0.00 | 0.00 | 26 | 1018.8 |
| 20260506181052 | 50 | 360 | 7.0 | 0.0 | 0.00 | 0.00 | 0.00 | 27 | 1018.9 |
| 20260506180551 | 50 | 360 | 4.3 | 0.0 | 0.00 | 0.00 | 0.00 | 26 | 1019.0 |
| 20260506175553 | 48 | 360 | 5.2 | 0.0 | 0.00 | 0.00 | 0.00 | 29 | 1019.1 |
| 20260506175055 | 49 | 360 | 6.1 | 0.0 | 0.00 | 0.00 | 0.00 | 29 | 1019.2 |
| 20260506174605 | 48 | 360 | 6.1 | 0.0 | 0.00 | 0.00 | 0.00 | 29 | 1019.3 |
| 20260506174052 | 49 | 360 | 5.2 | 0.0 | 0.00 | 0.00 | 0.00 | 29 | 1019.4 |
| 20260506173549 | 48 | 360 | 7.0 | 0.0 | 0.00 | 0.00 | 0.00 | 29 | 1019.4 |
| 20260506173054 | 49 | 360 | 7.8 | 0.0 | 0.00 | 0.00 | 0.00 | 29 | 1019.5 |
| 20260506172547 | 49 | 360 | 7.0 | 0.0 | 0.00 | 0.00 | 0.00 | 29 | 1019.5 |
| 20260506172047 | 48 | 360 | 7.0 | 0.0 | 0.00 | 0.00 | 0.00 | 29 | 1019.5 |
| 20260506171545 | 47 | 360 | 7.0 | 0.0 | 0.00 | 0.00 | 0.00 | 29 | 1019.6 |
| 20260506171045 | 47 | 360 | 7.0 | 0.0 | 0.00 | 0.00 | 0.00 | 31 | 1019.8 |
| 20260506170545 | 47 | 360 | 6.1 | 0.0 | 0.00 | 0.00 | 0.00 | 34 | 1019.8 |
| 20260506165542 | 47 | 360 | 6.1 | 0.0 | 0.00 | 0.00 | 0.00 | 34 | 1019.9 |
| 20260506165041 | 47 | 360 | 6.1 | 0.0 | 0.00 | 0.00 | 0.00 | 35 | 1020.0 |
| 20260506164547 | 46 | 360 | 6.1 | 0.0 | 0.00 | 0.00 | 0.00 | 34 | 1020.1 |
| 20260506164039 | 46 | 360 | 6.1 | 0.0 | 0.00 | 0.00 | 0.00 | 35 | 1020.1 |
| 20260506163539 | 46 | 360 | 5.2 | 0.0 | 0.00 | 0.00 | 0.00 | 36 | 1020.2 |
| 20260506163055 | 45 | 360 | 5.2 | 0.0 | 0.00 | 0.00 | 0.00 | 37 | 1020.3 |
| 20260506162538 | 45 | 360 | 4.3 | 0.0 | 0.00 | 0.00 | 0.00 | 37 | 1020.4 |
| 20260506162037 | 45 | 360 | 4.3 | 0.0 | 0.00 | 0.00 | 0.00 | 39 | 1020.4 |
| 20260506161537 | 45 | 360 | 4.3 | 0.0 | 0.00 | 0.00 | 0.00 | 41 | 1020.4 |
| 20260506161037 | 44 | 360 | 3.5 | 0.0 | 0.00 | 0.00 | 0.00 | 42 | 1020.5 |
| 20260506160535 | 45 | 360 | 2.6 | 0.0 | 0.00 | 0.00 | 0.00 | 42 | 1020.4 |
| 20260506155535 | 43 | 360 | 4.3 | 0.0 | 0.00 | 0.00 | 0.00 | 43 | 1020.6 |
| 20260506155038 | 44 | 360 | 5.2 | 0.0 | 0.00 | 0.00 | 0.00 | 43 | 1020.7 |
| 20260506154538 | 44 | 360 | 5.2 | 0.0 | 0.00 | 0.00 | 0.00 | 44 | 1020.8 |
| 20260506154033 | 44 | 360 | 6.1 | 0.0 | 0.00 | 0.00 | 0.00 | 44 | 1020.8 |
| 20260506153534 | 44 | 360 | 5.2 | 0.0 | 0.00 | 0.00 | 0.00 | 44 | 1020.8 |
| 20260506153033 | 43 | 360 | 4.3 | 0.0 | 0.00 | 0.00 | 0.00 | 46 | 1021.0 |
| 20260506152531 | 43 | 360 | 4.3 | 0.0 | 0.00 | 0.00 | 0.00 | 46 | 1021.0 |
| 20260506152031 | 42 | 360 | 3.5 | 0.0 | 0.00 | 0.00 | 0.00 | 47 | 1021.1 |
| 20260506151538 | 42 | 360 | 2.6 | 0.0 | 0.00 | 0.00 | 0.00 | 46 | 1021.2 |
| 20260506151029 | 42 | 360 | 3.5 | 0.0 | 0.00 | 0.00 | 0.00 | 47 | 1021.2 |
| 20260506150528 | 42 | 360 | 4.3 | 0.0 | 0.00 | 0.00 | 0.00 | 47 | 1021.3 |
| 20260506145528 | 41 | 360 | 4.3 | 0.0 | 0.00 | 0.00 | 0.00 | 48 | 1021.3 |
| 20260506145025 | 41 | 360 | 3.5 | 0.0 | 0.00 | 0.00 | 0.00 | 48 | 1021.4 |
| 20260506144526 | 40 | 360 | 3.5 | 0.0 | 0.00 | 0.00 | 0.00 | 49 | 1021.4 |
| 20260506144025 | 40 | 360 | 4.3 | 0.0 | 0.00 | 0.00 | 0.00 | 49 | 1021.5 |
| 20260506143523 | 40 | 360 | 4.3 | 0.0 | 0.00 | 0.00 | 0.00 | 51 | 1021.4 |
| 20260506143022 | 39 | 360 | 3.5 | 0.0 | 0.00 | 0.00 | 0.00 | 51 | 1021.5 |
| 20260506142524 | 38 | 360 | 4.3 | 0.0 | 0.00 | 0.00 | 0.00 | 51 | 1021.5 |
| 20260506142021 | 38 | 360 | 4.3 | 0.0 | 0.00 | 0.00 | 0.00 | 51 | 1021.6 |
| 20260506141518 | 38 | 360 | 3.5 | 0.0 | 0.00 | 0.00 | 0.00 | 51 | 1021.6 |
| 20260506141020 | 37 | 360 | 3.5 | 0.0 | 0.00 | 0.00 | 0.00 | 52 | 1021.7 |
| 20260506140516 | 37 | 360 | 3.5 | 0.0 | 0.00 | 0.00 | 0.00 | 53 | 1021.7 |
| 20260506135518 | 36 | 360 | 4.3 | 0.0 | 0.00 | 0.00 | 0.00 | 54 | 1021.7 |
| 20260506135014 | 35 | 360 | 4.3 | 0.0 | 0.00 | 0.00 | 0.00 | 55 | 1021.8 |
| 20260506134511 | 35 | 360 | 4.3 | 0.0 | 0.00 | 0.00 | 0.00 | 56 | 1021.7 |
| 20260506134016 | 34 | 360 | 4.3 | 0.0 | 0.00 | 0.00 | 0.00 | 57 | 1021.7 |
| 20260506133508 | 34 | 360 | 4.3 | 0.0 | 0.00 | 0.00 | 0.00 | 58 | 1021.7 |
| 20260506133007 | 33 | 360 | 3.5 | 0.0 | 0.00 | 0.00 | 0.00 | 59 | 1021.8 |
| 20260506132510 | 32 | 360 | 3.5 | 0.0 | 0.00 | 0.00 | 0.00 | 61 | 1021.8 |
| 20260506132005 | 31 | 360 | 3.5 | 0.0 | 0.00 | 0.00 | 0.00 | 62 | 1021.8 |
| 20260506131504 | 31 | 360 | 3.5 | 0.0 | 0.00 | 0.00 | 0.00 | 64 | 1021.9 |
| 20260506131005 | 30 | 360 | 3.5 | 0.0 | 0.00 | 0.00 | 0.00 | 66 | 1021.9 |
| 20260506130503 | 29 | 360 | 3.5 | 0.0 | 0.00 | 0.00 | 0.00 | 67 | 1021.8 |
| 20260506125600 | 27 | 360 | 2.6 | 0.0 | 0.00 | 0.00 | 0.00 | 72 | 1021.7 |
| 20260506125059 | 27 | 360 | 1.7 | 0.0 | 0.00 | 0.00 | 0.00 | 73 | 1021.7 |
| 20260506124601 | 26 | 360 | 1.7 | 0.0 | 0.00 | 0.00 | 0.00 | 74 | 1021.7 |
| 20260506124057 | 25 | 360 | 1.7 | 0.0 | 0.00 | 0.00 | 0.00 | 76 | 1021.7 |
| 20260506123556 | 24 | 360 | 1.7 | 0.0 | 0.00 | 0.00 | 0.00 | 77 | 1021.6 |
| 20260506123111 | 22 | 360 | 0.9 | 0.0 | 0.00 | 0.00 | 0.00 | 78 | 1021.6 |
| 20260506122555 | 21 | 360 | 0.9 | 0.0 | 0.00 | 0.00 | 0.00 | 78 | 1021.6 |
| 20260506122054 | 20 | 360 | 0.0 | 0.0 | 0.00 | 0.00 | 0.00 | 77 | 1021.5 |
| 20260506121610 | 19 | 360 | 0.0 | 0.0 | 0.00 | 0.00 | 0.00 | 77 | 1021.5 |
| 20260506121054 | 19 | 360 | 0.9 | 0.0 | 0.00 | 0.00 | 0.00 | 76 | 1021.4 |
| 20260506120553 | 19 | 360 | 0.9 | 0.0 | 0.00 | 0.00 | 0.00 | 76 | 1021.3 |
| 20260506115552 | 18 | 360 | 0.9 | 0.0 | 0.00 | 0.00 | 0.00 | 76 | 1021.1 |
| 20260506115051 | 18 | 360 | 1.7 | 0.0 | 0.00 | 0.00 | 0.00 | 77 | 1021.1 |
| 20260506114552 | 18 | 360 | 0.9 | 0.0 | 0.00 | 0.00 | 0.00 | 77 | 1021.1 |
| 20260506114051 | 18 | 360 | 0.0 | 0.0 | 0.00 | 0.00 | 0.00 | 77 | 1021.0 |
| 20260506113551 | 17 | 360 | 0.0 | 0.0 | 0.00 | 0.00 | 0.00 | 77 | 1021.0 |
| 20260506113050 | 17 | 360 | 0.9 | 0.0 | 0.00 | 0.00 | 0.00 | 77 | 1020.9 |
| 20260506112550 | 17 | 360 | 0.9 | 0.0 | 0.00 | 0.00 | 0.00 | 77 | 1020.8 |
| 20260506112049 | 17 | 360 | 1.7 | 0.0 | 0.00 | 0.00 | 0.00 | 78 | 1020.8 |
| 20260506111549 | 16 | 360 | 0.9 | 0.0 | 0.00 | 0.00 | 0.00 | 77 | 1020.8 |
| 20260506111050 | 16 | 360 | 0.9 | 0.0 | 0.00 | 0.00 | 0.00 | 77 | 1020.8 |
| 20260506110549 | 16 | 360 | 0.9 | 0.0 | 0.00 | 0.00 | 0.00 | 77 | 1020.8 |
| 20260506105549 | 16 | 360 | 0.0 | 0.0 | 0.00 | 0.00 | 0.00 | 76 | 1020.7 |
| 20260506105049 | 16 | 360 | 0.0 | 0.0 | 0.00 | 0.00 | 0.00 | 76 | 1020.8 |
| 20260506104549 | 16 | 360 | 0.9 | 0.0 | 0.00 | 0.00 | 0.00 | 76 | 1020.7 |
| 20260506104048 | 16 | 360 | 0.9 | 0.0 | 0.00 | 0.00 | 0.00 | 75 | 1020.7 |
| 20260506103546 | 16 | 360 | 0.9 | 0.0 | 0.00 | 0.00 | 0.00 | 74 | 1020.7 |
| 20260506103046 | 16 | 360 | 0.9 | 0.0 | 0.00 | 0.00 | 0.00 | 74 | 1020.6 |
| 20260506102545 | 17 | 360 | 1.7 | 0.0 | 0.00 | 0.00 | 0.00 | 74 | 1020.6 |
| 20260506102046 | 18 | 360 | 1.7 | 0.0 | 0.00 | 0.00 | 0.00 | 74 | 1020.7 |
| 20260506101551 | 18 | 360 | 1.7 | 0.0 | 0.00 | 0.00 | 0.00 | 75 | 1020.6 |
| 20260506101044 | 18 | 360 | 0.9 | 0.0 | 0.00 | 0.00 | 0.00 | 75 | 1020.6 |
| 20260506100546 | 18 | 360 | 0.9 | 0.0 | 0.00 | 0.00 | 0.00 | 75 | 1020.5 |
| 20260506095547 | 17 | 360 | 0.9 | 0.0 | 0.00 | 0.00 | 0.00 | 75 | 1020.7 |
| 20260506095044 | 17 | 360 | 0.0 | 0.0 | 0.00 | 0.00 | 0.00 | 74 | 1020.6 |
| 20260506094543 | 17 | 360 | 0.9 | 0.0 | 0.00 | 0.00 | 0.00 | 74 | 1020.6 |
| 20260506094043 | 17 | 360 | 1.7 | 0.0 | 0.00 | 0.00 | 0.00 | 75 | 1020.7 |
| 20260506093545 | 17 | 360 | 0.9 | 0.0 | 0.00 | 0.00 | 0.00 | 74 | 1020.6 |
| 20260506093044 | 17 | 360 | 0.9 | 0.0 | 0.00 | 0.00 | 0.00 | 74 | 1020.5 |
| 20260506092542 | 17 | 360 | 1.7 | 0.0 | 0.00 | 0.00 | 0.00 | 73 | 1020.6 |
| 20260506092041 | 17 | 360 | 1.7 | 0.0 | 0.00 | 0.00 | 0.00 | 74 | 1020.6 |
| 20260506091541 | 17 | 360 | 1.7 | 0.0 | 0.00 | 0.00 | 0.00 | 72 | 1020.6 |
| 20260506091040 | 17 | 360 | 1.7 | 0.0 | 0.00 | 0.00 | 0.00 | 72 | 1020.5 |
| 20260506090540 | 17 | 360 | 0.9 | 0.0 | 0.00 | 0.00 | 0.00 | 72 | 1020.6 |
| 20260506085537 | 18 | 360 | 0.9 | 0.0 | 0.00 | 0.00 | 0.00 | 72 | 1020.4 |
| 20260506085037 | 18 | 360 | 0.9 | 0.0 | 0.00 | 0.00 | 0.00 | 72 | 1020.4 |
| 20260506084543 | 18 | 360 | 0.9 | 0.0 | 0.00 | 0.00 | 0.00 | 71 | 1020.4 |
| 20260506084036 | 18 | 360 | 1.7 | 0.0 | 0.00 | 0.00 | 0.00 | 70 | 1020.4 |
| 20260506083537 | 18 | 360 | 1.7 | 0.0 | 0.00 | 0.00 | 0.00 | 69 | 1020.4 |
| 20260506083035 | 19 | 360 | 1.7 | 0.0 | 0.00 | 0.00 | 0.00 | 69 | 1020.4 |
| 20260506082533 | 19 | 360 | 1.7 | 0.0 | 0.00 | 0.00 | 0.00 | 69 | 1020.4 |
| 20260506082032 | 19 | 360 | 1.7 | 0.0 | 0.00 | 0.00 | 0.00 | 69 | 1020.5 |
| 20260506081535 | 19 | 360 | 1.7 | 0.0 | 0.00 | 0.00 | 0.00 | 67 | 1020.4 |
| 20260506081030 | 20 | 360 | 1.7 | 0.0 | 0.00 | 0.00 | 0.00 | 67 | 1020.4 |
| 20260506080530 | 20 | 360 | 1.7 | 0.0 | 0.00 | 0.00 | 0.00 | 66 | 1020.4 |
| 20260506073529 | 22 | 360 | 0.0 | 0.0 | 0.00 | 0.00 | 0.00 | 65 | 1020.3 |
| 20260506073026 | 22 | 360 | 0.0 | 0.0 | 0.00 | 0.00 | 0.00 | 66 | 1020.4 |
| 20260506072525 | 21 | 360 | 0.0 | 0.0 | 0.00 | 0.00 | 0.00 | 63 | 1020.3 |
| 20260506072024 | 21 | 360 | 0.0 | 0.0 | 0.00 | 0.00 | 0.00 | 61 | 1020.3 |
| 20260506071523 | 23 | 360 | 0.0 | 0.0 | 0.00 | 0.00 | 0.00 | 60 | 1020.3 |
| 20260506071022 | 24 | 360 | 0.0 | 0.0 | 0.00 | 0.00 | 0.00 | 61 | 1020.3 |
| 20260506070524 | 24 | 360 | 0.0 | 0.0 | 0.00 | 0.00 | 0.00 | 61 | 1020.3 |
| 20260506062517 | 23 | 360 | 0.0 | 0.0 | 0.00 | 0.00 | 0.00 | 64 | 1020.1 |
| 20260506062016 | 23 | 360 | 0.0 | 0.0 | 0.00 | 0.00 | 0.00 | 64 | 1020.1 |
| 20260506061517 | 23 | 360 | 0.0 | 0.0 | 0.00 | 0.00 | 0.00 | 63 | 1020.0 |
| 20260506061019 | 23 | 360 | 0.0 | 0.0 | 0.00 | 0.00 | 0.00 | 63 | 1020.0 |
| 20260506060515 | 23 | 360 | 0.0 | 0.0 | 0.00 | 0.00 | 0.00 | 63 | 1020.1 |
| 20260506051013 | 22 | 360 | 1.7 | 0.0 | 0.00 | 0.00 | 0.00 | 63 | 1019.6 |
| 20260506050512 | 22 | 360 | 1.7 | 0.0 | 0.00 | 0.00 | 0.00 | 62 | 1019.6 |
| 20260506045010 | 23 | 360 | 1.7 | 0.0 | 0.00 | 0.00 | 0.00 | 59 | 1019.6 |
| 20260506044515 | 23 | 360 | 1.7 | 0.0 | 0.00 | 0.00 | 0.00 | 59 | 1019.5 |
| 20260506044007 | 24 | 360 | 1.7 | 0.0 | 0.00 | 0.00 | 0.00 | 58 | 1019.6 |
| 20260506043506 | 24 | 360 | 1.7 | 0.0 | 0.00 | 0.00 | 0.00 | 58 | 1019.7 |
| 20260506043006 | 25 | 360 | 1.7 | 0.0 | 0.00 | 0.00 | 0.00 | 58 | 1019.6 |
| 20260506042506 | 25 | 360 | 1.7 | 0.0 | 0.00 | 0.00 | 0.00 | 58 | 1019.5 |
| 20260506042004 | 25 | 360 | 1.7 | 0.0 | 0.00 | 0.00 | 0.00 | 57 | 1019.7 |
| 20260506041504 | 25 | 360 | 1.7 | 0.0 | 0.00 | 0.00 | 0.00 | 58 | 1019.5 |
| 20260506041003 | 25 | 360 | 1.7 | 0.0 | 0.00 | 0.00 | 0.00 | 57 | 1019.5 |
| 20260506040503 | 25 | 360 | 1.7 | 0.0 | 0.00 | 0.00 | 0.00 | 56 | 1019.5 |
| 20260506035504 | 26 | 360 | 1.7 | 0.0 | 0.00 | 0.00 | 0.00 | 55 | 1019.4 |
| 20260506035103 | 26 | 360 | 2.6 | 0.0 | 0.00 | 0.00 | 0.00 | 54 | 1019.5 |
| 20260506034602 | 27 | 360 | 2.6 | 0.0 | 0.00 | 0.00 | 0.00 | 54 | 1019.5 |
| 20260506034057 | 27 | 360 | 2.6 | 0.0 | 0.00 | 0.00 | 0.00 | 53 | 1019.5 |
| 20260506033556 | 28 | 360 | 1.7 | 0.0 | 0.00 | 0.00 | 0.00 | 52 | 1019.4 |
| 20260506033055 | 28 | 360 | 1.7 | 0.0 | 0.00 | 0.00 | 0.00 | 51 | 1019.4 |
| 20260506032554 | 29 | 360 | 1.7 | 0.0 | 0.00 | 0.00 | 0.00 | 50 | 1019.3 |
| 20260506032053 | 30 | 360 | 1.7 | 0.0 | 0.00 | 0.00 | 0.00 | 49 | 1019.2 |
| 20260506031552 | 31 | 360 | 1.7 | 0.0 | 0.00 | 0.00 | 0.00 | 49 | 1019.1 |
| 20260506031053 | 31 | 360 | 1.7 | 0.0 | 0.00 | 0.00 | 0.00 | 49 | 1019.1 |
| 20260506030552 | 31 | 360 | 2.6 | 0.0 | 0.00 | 0.00 | 0.00 | 50 | 1019.1 |
| 20260506030155 | 30 | 360 | 2.6 | 0.0 | 0.00 | 0.00 | 0.00 | 50 | 1018.9 |
| 20260506025553 | 30 | 360 | 2.6 | 0.0 | 0.00 | 0.00 | 0.00 | 48 | 1019.0 |
| 20260506025051 | 31 | 360 | 1.7 | 0.0 | 0.00 | 0.00 | 0.00 | 46 | 1018.9 |
| 20260506024548 | 33 | 360 | 1.7 | 0.0 | 0.00 | 0.00 | 0.00 | 45 | 1018.7 |
| 20260506024048 | 34 | 360 | 2.6 | 0.0 | 0.00 | 0.00 | 0.00 | 44 | 1018.6 |
| 20260506023546 | 35 | 360 | 3.5 | 0.0 | 0.00 | 0.00 | 0.00 | 42 | 1018.6 |
| 20260506023058 | 36 | 360 | 3.5 | 0.0 | 0.00 | 0.00 | 0.00 | 42 | 1018.5 |
| 20260506022545 | 37 | 360 | 2.6 | 0.0 | 0.00 | 0.00 | 0.00 | 41 | 1018.5 |
| 20260506022048 | 38 | 360 | 2.6 | 0.0 | 0.00 | 0.00 | 0.00 | 39 | 1018.4 |
| 20260506021545 | 39 | 360 | 3.5 | 0.0 | 0.00 | 0.00 | 0.00 | 38 | 1018.5 |
| 20260506021047 | 40 | 360 | 3.5 | 0.0 | 0.00 | 0.00 | 0.00 | 38 | 1018.4 |
| 20260506020544 | 41 | 360 | 4.3 | 0.0 | 0.00 | 0.00 | 0.00 | 37 | 1018.4 |
| 20260506020144 | 42 | 360 | 5.2 | 0.0 | 0.00 | 0.00 | 0.00 | 36 | 1018.4 |
| 20260506015545 | 42 | 360 | 6.1 | 0.0 | 0.00 | 0.00 | 0.00 | 36 | 1018.4 |